Charlottetown, Prince Edward Island

1:00 PM ADT on March 30, 2017 (GMT -0300)
Charlottetown

Weather History for CYYG - June, 2013

Change the Weather History Date:

Saturday, June 8, 2013

  Actual Average Record
Temperature  
Mean Temperature 51 °F -  
Max Temperature 54 °F 69 °F 73 °F (2012)
Min Temperature 48 °F 51 °F 30 °F (2002)
Degree Days  
Heating Degree Days 14    
Growing Degree Days 1 (Base 50)    
Moisture  
Dew Point 48 °F    
Average Humidity 91    
Maximum Humidity 100    
Minimum Humidity 60    
Precipitation  
Precipitation 0.75 in 0.12 in - ()
Sea Level Pressure  
Sea Level Pressure 29.95 in    
Wind  
Wind Speed 13 mph ()    
Max Wind Speed 29 mph    
Max Gust Speed 38 mph    
Visibility 6.3 miles    
Events Rain    
Averages and records for this station are not official NWS values.
T = Trace of Precipitation, MM = Missing Value Source: Averaged Metar Reports

Daily Weather History Graph

Daily Weather History Graph

Search for Another Location

Airport or City:

Trip Planner

Search our weather history database for the weather conditions in past years. The results will help you decide how hot, cold, wet, or windy it might be!

Date:

Astronomy

Jun. 08, 2013 Rise Set
Actual Time 5:21 AM ADT 9:02 PM ADT
Civil Twilight 4:42 AM ADT 9:41 PM ADT
Nautical Twilight 3:51 AM ADT 10:32 PM ADT
Astronomical Twilight 2:40 AM ADT 11:44 PM ADT
Moon 5:28 AM ADT (6/8) 8:58 PM ADT (6/8)
Length of Visible Light 16h 58m
Length of Day
15h 41m
Waning Crescent, 0% of the Moon is Illuminated
Jun 8
Waning Crescent
Jun 8
New
Jun 16
First Quarter
Jun 23
Full
Jun 30
Last Quarter

Hourly Weather History & Observations

Time (ADT) Temp. Dew Point Humidity Pressure Visibility Wind Dir Wind Speed Gust Speed Precip Events Conditions
12:00 AM 57.2 °F 50.0 °F 77% 30.18 in 15.0 mi SSE 8.1 mph - N/A   Overcast
1:00 AM 55.4 °F 46.4 °F 72% 30.17 in 15.0 mi SSE 11.5 mph - N/A   Overcast
2:00 AM 55.4 °F 42.8 °F 63% 30.17 in 15.0 mi SSE 6.9 mph - N/A   Overcast
3:00 AM 54 °F 44 °F 60% 30.17 in 15 mi SE 6.9 mph - -   Overcast
3:00 AM 53.6 °F 44.6 °F 72% 30.16 in 15.0 mi SE 6.9 mph - N/A   Overcast
4:00 AM 51.8 °F 44.6 °F 76% 30.17 in 15.0 mi SE 8.1 mph - N/A   Overcast
5:00 AM 51.8 °F 46.4 °F 82% 30.17 in 10.0 mi ESE 6.9 mph - N/A Rain Light Rain
6:00 AM 50.0 °F 46.4 °F 87% 30.18 in 15.0 mi ESE 6.9 mph - N/A Rain Light Rain
7:00 AM 50.0 °F 46.4 °F 87% 30.16 in 10.0 mi ESE 8.1 mph - N/A Rain Light Rain
8:00 AM 48.2 °F 46.4 °F 93% 30.14 in 6.0 mi ESE 11.5 mph - N/A Rain Rain
9:00 AM 49 °F 47 °F 91% 30.10 in 6 mi ESE 18.4 mph - - Rain Rain
9:00 AM 50.0 °F 46.4 °F 87% 30.10 in 6.0 mi ESE 17.3 mph 26.5 mph N/A Rain Rain
9:14 AM 50.0 °F 48.2 °F 94% 30.11 in 8.0 mi ESE 12.7 mph 20.7 mph N/A Rain Light Rain
9:42 AM 50.0 °F 48.2 °F 94% 30.11 in 8.0 mi ESE 17.3 mph 24.2 mph N/A Rain Light Rain
10:00 AM 50.0 °F 48.2 °F 94% 30.09 in 6.0 mi East 11.5 mph 23.0 mph N/A Rain Rain
10:44 AM 50.0 °F 48.2 °F 94% 30.06 in 3.0 mi East 18.4 mph 25.3 mph N/A Rain Rain
11:00 AM 50.0 °F 48.2 °F 94% 30.08 in 3.0 mi East 12.7 mph 23.0 mph N/A Rain Rain
12:00 PM 51.8 °F 48.2 °F 88% 30.04 in 7.0 mi East 16.1 mph 27.6 mph N/A Rain Light Rain
12:19 PM 50.0 °F 50.0 °F 100% 30.01 in 3.0 mi East 18.4 mph 25.3 mph N/A Rain Rain
1:00 PM 51.8 °F 50.0 °F 94% 29.99 in 6.0 mi East 23.0 mph 32.2 mph N/A Rain Rain
1:17 PM 51.8 °F 50.0 °F 94% 29.98 in 8.0 mi ESE 23.0 mph 34.5 mph N/A Rain Light Rain
1:34 PM 51.8 °F 50.0 °F 94% 29.95 in 3.0 mi East 24.2 mph 34.5 mph N/A Rain Rain
2:00 PM 50.0 °F 48.2 °F 94% 29.94 in 2.5 mi East 23.0 mph 38.0 mph N/A Rain Heavy Rain
2:13 PM 51.8 °F 50.0 °F 94% 29.92 in 6.0 mi ESE 19.6 mph 32.2 mph N/A Rain Light Rain
2:18 PM 51.8 °F 48.2 °F 88% 29.91 in 3.0 mi ESE 28.8 mph 38.0 mph N/A Rain Rain
2:53 PM 50.0 °F 48.2 °F 94% 29.88 in 3.0 mi East 19.6 mph 32.2 mph N/A Rain Heavy Rain
3:00 PM 50 °F 49 °F 94% 29.87 in 4 mi East 24.2 mph - - Rain Heavy Rain
3:00 PM 50.0 °F 48.2 °F 94% 29.87 in 4.0 mi East 24.2 mph 35.7 mph N/A Rain Heavy Rain
3:07 PM 50.0 °F 48.2 °F 94% 29.85 in 5.0 mi East 23.0 mph 35.7 mph N/A Rain Rain
3:23 PM 50.0 °F 48.2 °F 94% 29.84 in 2.0 mi East 24.2 mph 36.8 mph N/A Rain Heavy Rain
3:50 PM 50.0 °F 48.2 °F 94% 29.82 in 6.0 mi East 21.9 mph 36.8 mph N/A Rain Rain
4:00 PM 50.0 °F 48.2 °F 94% 29.81 in 6.0 mi East 23.0 mph 33.4 mph N/A Rain Light Rain
4:35 PM 50.0 °F 50.0 °F 100% 29.78 in 4.0 mi East 20.7 mph 29.9 mph N/A Rain Rain
5:00 PM 50.0 °F 50.0 °F 100% 29.76 in 3.0 mi East 19.6 mph 27.6 mph N/A Rain Rain
5:16 PM 50.0 °F 50.0 °F 100% 29.75 in 5.0 mi East 16.1 mph 29.9 mph N/A Rain Light Rain
6:00 PM 51.8 °F 50.0 °F 94% 29.74 in 2.5 mi East 16.1 mph 24.2 mph N/A Rain Light Rain
6:29 PM 51.8 °F 50.0 °F 94% 29.73 in 2.0 mi East 16.1 mph 24.2 mph N/A Rain Light Rain
6:48 PM 51.8 °F 50.0 °F 94% 29.73 in 2.0 mi East 15.0 mph 20.7 mph N/A   Light Drizzle
7:00 PM 51.8 °F 50.0 °F 94% 29.73 in 2.5 mi East 12.7 mph 18.4 mph N/A   Light Drizzle
8:00 PM 51.8 °F 50.0 °F 94% 29.74 in 2.5 mi East 8.1 mph 18.4 mph N/A   Light Drizzle
9:00 PM 51 °F 50 °F 94% 29.74 in 4 mi ENE 9.2 mph - - Rain Light Drizzle
9:00 PM 50.0 °F 50.0 °F 100% 29.74 in 4.0 mi ENE 9.2 mph - N/A   Light Drizzle
10:00 PM 50.0 °F 50.0 °F 100% 29.75 in 4.0 mi NE 8.1 mph - N/A   Light Drizzle
11:00 PM 50.0 °F 50.0 °F 100% 29.78 in 3.0 mi NNE 8.1 mph - N/A   Light Drizzle